Weather History for Asyut, Egypt

Change the Weather History Date:

Thursday, September 19, 2013

  Actual Average Record
Temperature  
Mean Temperature 90 °F -  
Max Temperature 109 °F 90 °F - ()
Min Temperature 71 °F 63 °F - ()
Cooling Degree Days 25    
Growing Degree Days 40 (Base 50)    
Moisture  
Dew Point 50 °F    
Average Humidity 26    
Maximum Humidity 51    
Minimum Humidity 8    
Precipitation  
Precipitation 0.00 in 0.00 in - ()
Sea Level Pressure  
Sea Level Pressure 29.84 in    
Wind  
Wind Speed 2 mph ()    
Max Wind Speed 7 mph    
Max Gust Speed -    
Visibility 6.0 miles    
Events      
T = Trace of Precipitation, MM = Missing Value Source: Averaged Metar Reports

Daily Weather History Graph

Daily Weather History Graph

Search for Another Location

Airport:

Trip Planner

Search our weather history database for the weather conditions in past years. The results will help you decide how hot, cold, wet, or windy it might be!

Date:

Astronomy

Sep. 19, 2013 Rise Set
Actual Time 5:43 AM EET 5:55 PM EET
Civil Twilight 5:19 AM EET 6:19 PM EET
Nautical Twilight 4:52 AM EET 6:46 PM EET
Astronomical Twilight 4:25 AM EET 7:13 PM EET
Moon 5:48 PM EET 5:27 AM EET
Length of Visible Light 12h 59m
Length of Day
12h 12m
Full, 100% of the Moon is Illuminated
Sep 19
Full
Sep 19
Full
Sep 27
Last Quarter
Oct 5
New
Oct 12
First Quarter

Hourly Weather History & Observations

Time (EET) Temp. Heat Index Dew Point Humidity Pressure Visibility Wind Dir Wind Speed Gust Speed Precip Events Conditions
12:00 AM 80.6 °F 80.5 °F 55.4 °F 42% 29.86 in - Calm Calm - N/A   Clear
1:00 AM 78.8 °F - 59.0 °F 51% 29.86 in - Calm Calm - N/A   Clear
2:00 AM 77 °F - 50 °F 28% 29.82 in 6 mi Calm Calm - -  
2:00 AM 77.0 °F - 50.0 °F 39% 29.86 in - Calm Calm - N/A   Clear
3:00 AM 75.2 °F - 50.0 °F 41% 29.86 in - West 1.2 mph - N/A   Clear
4:00 AM 75.2 °F - 50.0 °F 41% 29.86 in - West 2.3 mph - N/A   Clear
5:00 AM 73.4 °F - 50.0 °F 44% 29.86 in - South 1.2 mph - N/A   Clear
6:00 AM 71.6 °F - 50.0 °F 46% 29.86 in - South 1.2 mph - N/A   Clear
7:00 AM 73.4 °F - 50.0 °F 44% 29.86 in - SSE 1.2 mph - N/A   Clear
8:00 AM 82 °F - 49 °F 21% 29.84 in 6 mi SSE 2.3 mph - -  
8:00 AM 82.4 °F - 48.2 °F 30% 29.89 in - SSE 2.3 mph - N/A   Clear
9:00 AM 91.4 °F - 48.2 °F 23% 29.89 in - SSE 4.6 mph - N/A   Clear
10:00 AM 98.6 °F - 50.0 °F 19% 29.89 in - SSE 3.5 mph - N/A   Clear
11:00 AM 102.2 °F - 51.8 °F 18% 29.89 in - SSE 2.3 mph - N/A   Clear
12:00 PM 104.0 °F - 51.8 °F 17% 29.86 in - East 1.2 mph - N/A   Clear
1:00 PM 107.6 °F - 51.8 °F 16% 29.86 in - WSW 3.5 mph - N/A   Clear
2:00 PM 108 °F - 51 °F 8% 29.77 in 6 mi WNW 3.5 mph - -  
2:00 PM 107.6 °F - 50.0 °F 15% 29.83 in - WNW 3.5 mph - N/A   Clear
3:00 PM 109.4 °F - 50.0 °F 14% 29.83 in - ENE 6.9 mph - N/A   Clear
4:00 PM 109.4 °F - 50.0 °F 14% 29.80 in - West 2.3 mph - N/A   Clear
5:00 PM 107.6 °F - 48.2 °F 14% 29.80 in - West 4.6 mph - N/A   Clear
6:00 PM 104.0 °F - 48.2 °F 15% 29.80 in - West 3.5 mph - N/A   Clear
7:00 PM 100.4 °F - 46.4 °F 16% 29.83 in - SW 3.5 mph - N/A   Clear
8:00 PM 95 °F - 51 °F 14% 29.79 in 6 mi WSW 1.2 mph - -  
8:00 PM 95.0 °F - 50.0 °F 22% 29.80 in - WSW 1.2 mph - N/A   Clear
9:00 PM 91.4 °F - 48.2 °F 23% 29.86 in - West 1.2 mph - N/A   Clear
10:00 PM 87.8 °F - 48.2 °F 25% 29.86 in - WSW 1.2 mph - N/A   Clear
11:00 PM 87.8 °F - 44.6 °F 22% 29.86 in - WSW 2.3 mph - N/A   Clear